Stations météo

réclame
Mon MeteoGroup
Putbus, Allemagne (10093): Température de l'air & dewpoint: 19.02.2018 10:00:00 - 25.02.2018 10:00:00 (CET)Putbus, Allemagne (10093): Température de l'air 5cm & Température de l'air -5cm: 19.02.2018 10:00:00 - 25.02.2018 10:00:00 (CET)Putbus, Allemagne (10093): Température de l'air -20cm & Température de l'air -100cm: 19.02.2018 10:00:00 - 25.02.2018 10:00:00 (CET)Putbus, Allemagne (10093): Vitesse du vent & gusts: 19.02.2018 10:00:00 - 25.02.2018 10:00:00 (CET)Putbus, Allemagne (10093): Direction du vent: 19.02.2018 10:00:00 - 25.02.2018 10:00:00 (CET)Putbus, Allemagne (10093): reduced air pressure: 19.02.2018 10:00:00 - 25.02.2018 10:00:00 (CET)Putbus, Allemagne (10093): visibility: 19.02.2018 10:00:00 - 25.02.2018 10:00:00 (CET)Putbus, Allemagne (10093): Ensoleillement: 19.02.2018 10:00:00 - 25.02.2018 10:00:00 (CET)Putbus, Allemagne (10093): Quantités de précipitations: 19.02.2018 10:00:00 - 25.02.2018 10:00:00 (CET)
Date & Time tt [°C] td [°C] tt 5cm [°C] tt -5cm [°C] tt -20cm [°C] tt -100cm [°C] ff [km/h] ff [knt] fx [km/h] fx [knt] dd ppp [hPa] vv [km] sd [min] rr [mm]
25.02.2018 10:00:00 -3,2 -5,8 -2,5 -0,1 0,7 3,8 19 10 31 17 NNE 1033,5 24 0 0,0
25.02.2018 09:00:00 -3,6 -5,3 -2,7 -0,1 0,7 3,8 14 8 29 15 N 1033,6 9 0 0,1
25.02.2018 08:00:00 -3,5 -5,6 -3,8 -0,2 0,7 3,8 12 6 29 16 NNE 1033,7 54 0 0,0
25.02.2018 07:00:00 -3,5 -4,2 -3,3 -0,2 0,7 3,8 18 10 27 15 NNE 1033,6 7 0 0,5
25.02.2018 06:00:00 -3,6 -5,0 -3,4 -0,3 0,7 3,8 16 8 25 13 NNE 1033,7 0,4 0 0,2
25.02.2018 05:00:00 -4,5 -5,8 -5,0 -0,3 0,7 3,8 8 4 12 6 W 1033,9 38 0 0,0
25.02.2018 04:00:00 -4,8 -6,0 -5,4 -0,3 0,7 3,8 9 5 11 6 W 1034,1 37 0 0,0
25.02.2018 03:00:00 -3,6 -5,6 -3,6 -0,2 0,7 3,8 6 4 23 12 SSW 1034,5 1,9 0 0,1
25.02.2018 02:00:00 -2,5 -8,3 -3,1 -0,3 0,7 3,8 12 6 22 12 ENE 1034,6 70 0 0,0
25.02.2018 01:00:00 -3,1 -6,9 -3,8 -0,2 0,7 3,8 7 4 20 11 E 1034,7 70 0 0,0
25.02.2018 00:00:00 -2,6 -8,1 -3,6 -0,2 0,7 3,8 13 7 28 15 E 1034,8 70 0 0,0
24.02.2018 23:00:00 -3,0 -6,6 -3,5 -0,1 0,7 3,8 12 6 31 17 ENE 1034,9 69 0 0,0
24.02.2018 22:00:00 -3,2 -6,3 -3,6 -0,1 0,7 3,8 14 8 31 17 ENE 1034,8 41 0 0,0
24.02.2018 21:00:00 -3,0 -6,3 -3,6 -0,1 0,7 3,8 14 7 34 18 ENE 1034,8 27 0 0,0
24.02.2018 20:00:00 -3,5 -6,0 -4,4 0,0 0,7 3,8 16 9 40 22 ENE 1034,7 70 0 0,0
24.02.2018 19:00:00 -3,3 -6,6 -4,3 0,0 0,7 3,8 16 9 42 23 E 1034,9 70 0 0,0
24.02.2018 18:00:00 -2,7 -6,5 -3,0 0,0 0,7 3,8 16 8 33 18 ENE 1034,7 12 0 0,0
24.02.2018 17:00:00 -2,5 -6,1 -2,7 0,0 0,7 3,8 18 10 39 21 NE 1034,5 70 34 0,1
24.02.2018 16:00:00 -2,6 -6,1 -1,9 0,0 0,7 3,8 24 13 41 22 ENE 1034,3 64 11 0,0
24.02.2018 15:00:00 -2,1 -5,8 -1,2 0,0 0,7 3,8 20 11 47 25 ENE 1034,2 58 9 0,0
24.02.2018 14:00:00 -1,4 -6,6 -0,9 0,0 0,7 3,8 24 13 44 24 ENE 1033,8 52 37 0,0
24.02.2018 13:00:00 -1,6 -6,2 -1,0 0,0 0,7 3,8 29 16 51 28 E 1033,8 33 36 0,0
24.02.2018 12:00:00 -1,0 -7,6 0,2 0,0 0,7 3,8 31 17 49 26 ENE 1033,6 38 38 0,0
24.02.2018 11:00:00 -0,9 -8,0 -0,5 0,0 0,7 3,8 28 15 49 26 ENE 1033,5 69 34 0,0
24.02.2018 10:00:00 -0,9 -8,2 0,6 0,0 0,7 3,8 32 17 49 27 ENE 1033,0 49 14 0,0
24.02.2018 09:00:00 -1,5 -7,3 -1,6 -0,1 0,7 3,8 25 13 47 26 ENE 1032,7 70 11 0,0
24.02.2018 08:00:00 -1,4 -9,3 -1,8 0,0 0,8 3,8 31 17 46 25 ENE 1032,4 70 6 0,0
24.02.2018 07:00:00 -1,4 -8,8 -2,1 0,0 0,8 3,8 27 15 42 23 NE 1031,9 70 0 0,0
24.02.2018 06:00:00 -1,4 -8,3 -1,8 0,1 0,8 3,8 25 13 44 24 ENE 1031,7 70 0 0,0
24.02.2018 05:00:00 -1,0 -7,1 -1,3 0,1 0,8 3,9 29 16 44 24 ENE 1030,9 56 0 0,0
24.02.2018 04:00:00 -0,6 -4,5 -0,8 0,1 0,8 3,9 27 14 39 21 ENE 1030,2 30 0 0,0
24.02.2018 03:00:00 -0,2 -5,2 -0,7 0,1 0,8 3,9 23 12 36 19 NE 1029,9 70 0 0,0
24.02.2018 02:00:00 0,0 -4,9 -0,3 0,1 0,8 3,9 24 13 33 18 NE 1029,7 70 0 0,0
24.02.2018 01:00:00 -0,4 -2,6 -0,6 0,1 0,8 3,9 20 11 30 16 NE 1029,3 23 0 0,0
24.02.2018 00:00:00 -0,4 -2,8 -0,6 0,1 0,8 3,9 17 9 32 17 NNE 1029,1 39 0 0,0
23.02.2018 23:00:00 -0,4 -2,7 -0,6 0,1 0,8 3,9 16 9 25 14 NE 1028,9 29 0 0,0
23.02.2018 22:00:00 0,0 -3,3 -0,3 0,1 0,8 3,9 20 11 32 18 NE 1029,0 30 0 0,0
23.02.2018 21:00:00 -0,9 -5,3 -1,2 0,1 0,8 3,9 6 4 9 5 WNW 1028,7 38 0 0,0
23.02.2018 20:00:00 -1,1 -5,8 -1,6 0,1 0,8 3,9 5 3 8 4 W 1028,6 43 0 0,0
23.02.2018 19:00:00 -1,7 -5,4 -2,3 0,1 0,8 3,9 3 2 10 5 NNW 1028,8 47 0 0,0
23.02.2018 18:00:00 -1,9 -5,6 -4,6 0,0 0,8 3,9 5 3 9 5 N 1028,6 38 7 0,0
23.02.2018 17:00:00 -0,9 -7,1 -1,9 0,0 0,8 3,9 5 3 14 8 E 1028,5 36 55 0,0
23.02.2018 16:00:00 -0,3 -8,7 2,7 0,0 0,8 3,9 4 2 10 6 NNE 1028,5 28 60 0,0
23.02.2018 15:00:00 -0,3 -6,8 1,7 0,0 0,8 3,9 4 2 9 5 ESE 1028,6 23 60 0,0
23.02.2018 14:00:00 -0,5 -6,6 1,4 0,0 0,8 3,9 3 2 14 8 S 1029,1 18 60 0,0
23.02.2018 13:00:00 -0,4 -6,4 2,0 0,0 0,8 3,9 5 3 14 8 S 1029,2 15 60 0,0
23.02.2018 12:00:00 -0,6 -6,8 3,1 0,0 0,8 3,9 5 3 16 9 S 1029,5 21 59 0,0
23.02.2018 11:00:00 -1,8 -7,3 -0,8 0,0 0,8 3,9 8 4 18 10 ESE 1029,5 18 52 0,0
23.02.2018 10:00:00 -2,3 -7,2 -1,3 -0,1 0,8 3,9 10 6 21 11 E 1029,4 23 48 0,0
23.02.2018 09:00:00 -2,9 -7,5 -2,3 -0,2 0,9 3,9 9 5 14 7 E 1029,0 17 60 0,0
23.02.2018 08:00:00 -4,1 -7,3 -5,5 -0,1 0,9 3,9 7 4 12 7 E 1028,9 18 4 0,0
23.02.2018 07:00:00 -4,3 -8,0 -5,7 0,0 0,9 3,9 8 5 19 10 E 1028,3 16 0 0,0
23.02.2018 06:00:00 -4,0 -7,7 -5,2 0,1 0,9 3,9 10 5 18 10 E 1028,2 17 0 0,0
23.02.2018 05:00:00 -3,7 -8,3 -5,0 0,1 0,9 3,9 8 5 22 12 E 1028,1 20 0 0,0
23.02.2018 04:00:00 -3,2 -7,8 -4,1 0,1 0,9 3,9 14 8 24 13 E 1027,9 20 0 0,0
23.02.2018 03:00:00 -2,6 -7,5 -3,2 0,1 1,0 3,9 12 7 28 15 E 1028,0 28 0 0,0
23.02.2018 02:00:00 -2,3 -8,1 -3,2 0,1 1,0 3,9 16 9 27 15 ENE 1028,1 42 0 0,0
23.02.2018 01:00:00 -2,1 -8,0 -2,9 0,2 1,0 3,9 15 8 26 14 ENE 1028,3 57 0 0,0
23.02.2018 00:00:00 -1,8 -7,1 -2,6 0,2 1,0 3,9 20 11 29 16 ENE 1028,3 52 0 0,0
22.02.2018 23:00:00 -1,7 -6,0 -2,6 0,2 1,0 3,9 16 9 26 14 E 1028,5 44 0 0,0
22.02.2018 22:00:00 -1,5 -5,1 -2,6 0,2 1,1 3,9 13 7 24 13 E 1028,2 31 0 0,0
22.02.2018 21:00:00 -0,9 -5,1 -1,4 0,3 1,1 3,9 12 7 24 13 E 1028,0 35 0 0,0
22.02.2018 20:00:00 -0,6 -5,0 -1,2 0,3 1,1 3,9 11 6 23 12 E 1027,9 36 0 0,0
22.02.2018 19:00:00 -0,3 -3,6 -0,7 0,3 1,1 3,9 11 6 23 12 E 1027,5 31 0 0,0
22.02.2018 18:00:00 -0,1 -3,5 -0,5 0,4 1,1 3,9 12 6 24 13 E 1027,3 34 0 0,0
22.02.2018 17:00:00 0,2 -2,4 0,1 0,7 1,0 3,9 13 7 21 11 ESE 1027,0 9 0 0,0
22.02.2018 16:00:00 0,5 -2,1 0,2 0,5 0,9 3,9 12 7 25 13 E 1026,8 23 40 0,0
22.02.2018 15:00:00 1,1 -3,1 2,0 0,2 0,8 3,9 17 9 28 15 ENE 1026,8 31 16 0,0
22.02.2018 14:00:00 0,8 -2,3 0,7 0,1 0,8 3,9 22 12 29 16 ENE 1027,0 60 19 0,0
22.02.2018 13:00:00 1,4 -2,0 2,3 0,1 0,8 3,9 20 11 27 14 ENE 1027,1 28 14 0,0
22.02.2018 12:00:00 1,8 -2,5 3,2 0,1 0,8 3,9 14 7 23 12 NE 1027,1 40 23 0,0
22.02.2018 11:00:00 1,2 -2,6 1,9 0,1 0,8 3,9 10 6 16 9 NNE 1027,3 37 31 0,0
22.02.2018 10:00:00 0,7 -1,6 1,7 0,1 0,8 3,9 8 4 12 7 N 1027,4 22 12 0,0
22.02.2018 09:00:00 0,5 -1,7 2,3 0,1 0,8 3,9 6 4 10 5 NNE 1027,1 21 31 0,0
22.02.2018 08:00:00 -0,4 -1,1 -1,3 0,1 0,8 3,9 6 3 14 8 NE 1027,0 9 0 0,0
22.02.2018 07:00:00 -0,2 -0,6 -0,6 0,1 0,8 3,9 6 3 10 5 N 1026,8 2,9 0 0,0
22.02.2018 06:00:00 -0,2 -0,7 -1,1 0,1 0,9 3,9 6 4 13 7 NNW 1026,8 3,9 0 0,1
22.02.2018 05:00:00 -0,2 -0,9 -0,7 0,1 0,9 3,9 8 4 13 7 NNW 1026,8 3,3 0 0,0
22.02.2018 04:00:00 -0,3 -1,3 -0,9 0,1 0,9 3,9 9 5 16 9 WNW 1027,0 2,9 0 0,0
22.02.2018 03:00:00 -0,3 -1,7 -1,1 0,1 0,9 3,9 12 6 16 9 W 1027,1 5 0 0,0
22.02.2018 02:00:00 -0,5 -1,9 -1,4 0,1 0,9 3,9 11 6 16 8 W 1027,3 7 0 0,0
22.02.2018 01:00:00 -0,2 -2,0 -1,0 0,1 0,9 3,9 12 7 18 10 W 1027,5 9 0 0,0
22.02.2018 00:00:00 -0,8 -1,8 -1,3 0,1 0,9 3,9 9 5 13 7 W 1027,6 8 0 0,0
21.02.2018 23:00:00 -1,2 -1,8 -2,2 0,1 0,9 3,9 10 5 13 7 W 1027,6 8 0 0,0
21.02.2018 22:00:00 -2,0 -2,5 -3,0 0,1 0,9 3,9 8 4 10 5 W 1027,8 7 0 0,0
21.02.2018 21:00:00 -2,1 -2,6 -3,1 0,1 0,9 3,9 7 4 9 5 W 1027,6 8 0 0,0
21.02.2018 20:00:00 -2,1 -2,7 -3,3 0,1 0,9 3,9 6 3 8 4 W 1027,4 9 0 0,0
21.02.2018 19:00:00 -1,6 -2,5 -3,4 0,1 0,9 3,9 6 3 6 4 WSW 1027,1 11 0 0,0
21.02.2018 18:00:00 -1,0 -2,3 -3,1 0,1 0,9 3,9 2 1 7 4 NNE 1026,9 12 0 0,0
21.02.2018 17:00:00 0,0 -2,0 -2,1 0,1 0,9 3,9 6 3 11 6 N 1026,7 19 2 0,0
21.02.2018 16:00:00 1,0 -1,0 0,7 0,1 0,9 3,9 6 4 13 7 NE 1026,7 20 0 0,0
21.02.2018 15:00:00 0,7 -1,3 1,2 0,1 0,9 3,9 6 3 9 5 NNE 1026,9 23 0 0,0
21.02.2018 14:00:00 0,0 -0,7 0,2 0,1 0,9 3,9 5 3 24 13 NNW 1027,2 18 0 0,3
21.02.2018 13:00:00 0,8 -1,5 1,3 0,1 1,0 3,9 7 4 12 6 N 1027,5 21 0 0,0
21.02.2018 12:00:00 -0,2 -1,4 0,6 0,1 1,0 3,9 4 2 27 15 E 1027,4 20 0 0,3
21.02.2018 11:00:00 1,3 -0,8 1,7 0,1 1,0 3,9 9 5 14 7 N 1027,1 29 7 0,0
21.02.2018 10:00:00 0,4 -0,6 0,5 0,1 1,0 3,9 6 4 12 7 N 1027,1 6 0 0,0
21.02.2018 09:00:00 0,0 -1,1 -0,2 0,1 1,0 3,9 8 4 14 7 N 1026,8 7 0 0,0
21.02.2018 08:00:00 -1,2 -2,3 -2,8 0,1 1,0 3,9 7 4 9 5 NW 1026,5 8 0 0,0
21.02.2018 07:00:00 -0,9 -2,2 -1,8 0,2 1,1 3,8 4 2 7 4 NNW 1026,5 9 0 0,0
21.02.2018 06:00:00 -1,7 -3,1 -4,8 0,2 1,1 3,8 4 2 13 7 N 1026,4 8 0 0,0
21.02.2018 05:00:00 -0,8 -2,5 -3,1 0,2 1,1 3,8 9 5 12 6 N 1026,5 10 0 0,0
21.02.2018 04:00:00 -1,8 -2,8 -4,6 0,2 1,1 3,8 5 3 6 4 NNW 1026,2 9 0 0,0
21.02.2018 03:00:00 -1,4 -2,5 -4,3 0,2 1,2 3,8 5 3 10 5 NW 1026,4 10 0 0,0
21.02.2018 02:00:00 -1,0 -2,5 -4,0 0,2 1,2 3,8 6 3 10 6 NNE 1026,4 13 0 0,0
21.02.2018 01:00:00 0,8 -1,9 -0,9 0,3 1,2 3,8 7 4 18 10 E 1026,3 17 0 0,0
21.02.2018 00:00:00 1,2 -1,9 0,3 0,3 1,3 3,8 10 6 19 10 ENE 1026,0 17 0 0,0
20.02.2018 23:00:00 1,5 -1,8 0,9 0,3 1,4 3,8 15 8 22 12 ENE 1025,8 17 0 0,0
20.02.2018 22:00:00 1,2 -2,7 0,4 0,3 1,4 3,8 10 6 17 9 ENE 1025,4 24 0 0,0
20.02.2018 21:00:00 1,3 -3,7 0,4 0,4 1,5 3,8 10 6 18 10 ENE 1025,1 25 0 0,0
20.02.2018 20:00:00 1,1 -2,9 0,0 0,4 1,6 3,8 12 6 21 11 ENE 1024,9 24 0 0,0
20.02.2018 19:00:00 0,8 -3,5 -0,9 0,5 1,8 3,8 13 7 21 11 ENE 1024,4 22 0 0,0
20.02.2018 18:00:00 0,8 -3,4 -0,8 0,7 1,9 3,8 13 7 23 13 ENE 1023,9 19 12 0,0
20.02.2018 17:00:00 1,5 -4,5 0,8 2,0 1,9 3,8 16 9 27 15 E 1023,7 22 60 0,0
20.02.2018 16:00:00 2,1 -4,4 2,6 2,7 1,7 3,8 17 9 32 18 E 1023,4 20 60 0,0
20.02.2018 15:00:00 2,3 -5,7 2,6 3,5 1,3 3,8 22 12 32 17 E 1023,4 15 58 0,0
20.02.2018 14:00:00 2,5 -5,0 4,0 3,0 1,0 3,8 18 10 33 18 E 1023,2 9 60 0,0
20.02.2018 13:00:00 2,8 -5,1 4,5 0,6 0,9 3,8 17 9 29 16 ESE 1023,3 9 60 0,0
20.02.2018 12:00:00 2,7 -4,8 3,8 0,1 0,9 3,8 19 10 29 16 ESE 1023,3 12 60 0,0
20.02.2018 11:00:00 2,3 -3,8 3,1 0,1 0,9 3,8 14 8 25 14 ESE 1023,1 13 60 0,0
20.02.2018 10:00:00 1,6 -2,2 2,4 0,1 0,9 3,8 10 5 17 9 E 1023,0 9 11 0,0
20.02.2018 09:00:00 0,1 -1,6 -0,5 0,2 0,9 3,8 7 4 16 8 E 1023,0 6 0 0,0
20.02.2018 08:00:00 -0,6 -2,3 -3,0 0,2 1,0 3,8 6 3 12 7 E 1022,6 7 0 0,0
20.02.2018 07:00:00 -0,4 -2,1 -1,3 0,2 1,0 3,8 7 4 11 6 E 1022,4 7 0 0,0
20.02.2018 06:00:00 -0,8 -2,6 -3,4 0,2 1,0 3,8 6 4 11 6 E 1022,2 7 0 0,0
20.02.2018 05:00:00 -0,3 -2,5 -1,8 0,2 1,0 3,8 6 3 13 7 ESE 1022,1 8 0 0,0
20.02.2018 04:00:00 0,1 -2,4 -1,2 0,2 1,0 3,8 8 4 14 7 ESE 1021,9 7 0 0,0
20.02.2018 03:00:00 0,5 -2,0 -0,7 0,2 1,0 3,8 7 4 16 9 SE 1021,9 7 0 0,0
20.02.2018 02:00:00 0,8 -2,5 -0,2 0,2 1,1 3,8 8 4 14 8 SE 1021,7 8 0 0,0
20.02.2018 01:00:00 0,8 -2,4 -0,3 0,2 1,1 3,8 6 4 15 8 SE 1021,7 9 0 0,0
20.02.2018 00:00:00 0,7 -1,9 -0,6 0,2 1,1 3,8 9 5 18 10 SE 1021,5 8 0 0,0
19.02.2018 23:00:00 0,8 -2,2 -0,7 0,1 1,2 3,8 9 5 17 9 SE 1021,2 8 0 0,0
19.02.2018 22:00:00 1,1 -2,3 -0,1 -0,1 1,3 3,8 10 5 19 11 SE 1021,1 10 0 0,0
19.02.2018 21:00:00 1,0 -1,6 -0,3 0,2 1,4 3,8 6 3 13 7 SSE 1021,0 11 0 0,0
19.02.2018 20:00:00 1,4 -1,6 -0,3 0,5 1,4 3,8 5 3 13 7 SSE 1021,0 13 0 0,0
19.02.2018 19:00:00 1,7 -1,5 0,6 0,8 1,4 3,8 7 4 13 7 SSE 1020,9 12 0 0,0
19.02.2018 18:00:00 1,9 -1,5 0,8 1,2 1,3 3,8 6 4 13 7 SSE 1020,7 13 0 0,0
19.02.2018 17:00:00 2,2 -1,3 1,3 1,8 1,0 3,8 7 4 14 8 SSE 1020,6 14 0 0,0
19.02.2018 16:00:00 2,7 -1,1 2,4 2,0 0,8 3,8 5 3 13 7 SE 1020,7 16 0 0,0
19.02.2018 15:00:00 2,8 -1,6 2,9 1,6 0,6 3,8 6 4 14 8 SSE 1020,7 17 0 0,0
19.02.2018 14:00:00 2,8 -2,0 3,4 0,1 0,5 3,8 8 5 18 10 SSE 1021,0 17 10 0,0
19.02.2018 13:00:00 2,8 -1,5 3,5 0,0 0,5 3,8 11 6 19 11 S 1021,1 16 28 0,0
19.02.2018 12:00:00 2,8 -1,5 3,7 0,0 0,5 3,8 11 6 23 13 S 1021,5 15 34 0,0
19.02.2018 11:00:00 2,0 -2,5 2,4 0,0 0,5 3,8 16 8 28 15 SSW 1021,6 15 60 0,0
19.02.2018 10:00:00 1,3 -2,7 2,2 0,0 0,4 3,8 16 9 29 16 S 1021,9 16 60 0,0

tt = Température de l'air
td = dewpoint
tt 5cm = Température de l'air 5cm
tt -5cm = Température de l'air -5cm
tt -20cm = Température de l'air -20cm
tt -100cm = Température de l'air -100cm
ff = Vitesse du vent
fx = gusts
dd = Direction du vent
ppp = reduced air pressure
vv = visibility
sd = Ensoleillement
rr = Quantités de précipitations

stations d'obs. à proximité